User: anonymous   Login
Location: *
(34.0486°S, 61.7880°E)
Time: 02:33:52
(UTC+00:00)
Language:

Cosmos 1954 Rocket - Orbit

View from above orbital plane
View from above orbital plane
View from above satellite
View from above satellite

Ground track
Ground track

The orbit data is extracted from the following two-line orbital elements,

1 19257U 88053B   20192.54672625 -.00000002 +00000-0 +80710-5 0  9993
2 19257 074.0501 318.5217 0021435 291.2988 140.9854 14.37472296679327
Epoch (UTC): 10 July 2020 13:07:17
Eccentricity: 0.0021435
inclination: 74.0501°
perigee height: 751 km
apogee height: 782 km
right ascension of ascending node: 318.5217°
argument of perigee: 291.2988°
revolutions per day: 14.37472296
mean anomaly at epoch: 140.9854°
orbit number at epoch: 67932

The dashed part of the orbit path shows where the satellite is in the earth's shadow,  

DLR